.
WxDataArchive / Data Records for 2013-03-25
2013-03-24 March 2013 2013-03-26

Data Records for Monday, 25 March 2013

Time	Temp	Chill	HIndex	Humid	Dewpt	 Wind 	HiWind	WindDir	Rain 	Barom 
-----	----	-----	------	-----	-----	------	------	-------	-----	----- 
00:00	28.7	28.7	28.7	90	26.1	2	7	90	0.00	29.577 
00:05	28.5	28.5	28.5	90	25.9	1	7	68	0.00	29.577 
00:10	28.5	28.5	28.5	91	26.2	2	7	112	0.00	29.577 
00:15	28.5	28.5	28.5	91	26.2	2	6	90	0.00	29.571 
00:20	28.4	28.4	28.4	91	26.1	1	6	90	0.00	29.571 
00:25	28.4	28.4	28.4	91	26.1	2	9	112	0.00	29.571 
00:30	28.4	28.4	28.4	91	26.1	2	9	90	0.00	29.569 
00:35	28.4	28.4	28.4	91	26.1	1	3	90	0.00	29.569 
00:40	28.4	28.4	28.4	92	26.4	2	9	90	0.00	29.569 
00:45	28.2	28.2	28.2	92	26.2	1	8	90	0.00	29.565 
00:50	28.2	28.2	28.2	92	26.2	1	4	22	0.00	29.565 
00:55	28.2	28.2	28.2	92	26.2	2	5	90	0.00	29.565 
01:00	28.2	28.2	28.2	92	26.2	2	6	112	0.00	29.554 
01:05	28.2	28.2	28.2	92	26.2	2	6	45	0.00	29.554 
01:10	28.2	28.2	28.2	92	26.2	1	5	45	0.00	29.554 
01:15	28.2	28.2	28.2	92	26.2	1	4	90	0.00	29.551 
01:20	28.2	28.2	28.2	92	26.2	2	6	112	0.00	29.551 
01:25	28.2	28.2	28.2	92	26.2	1	6	112	0.00	29.551 
01:30	28.2	28.2	28.2	92	26.2	2	4	112	0.00	29.552 
01:35	28.2	28.2	28.2	92	26.2	1	3	112	0.00	29.552 
01:40	28.2	28.2	28.2	92	26.2	1	3	112	0.00	29.552 
01:45	28.2	28.2	28.2	92	26.2	1	5	90	0.00	29.550 
01:50	28.2	28.2	28.2	92	26.2	1	5	68	0.00	29.550 
01:55	28.2	28.2	28.2	92	26.2	1	4	338	0.00	29.550 
02:00	28.2	28.2	28.2	92	26.2	1	5	112	0.00	29.549 
02:05	28.2	28.2	28.2	92	26.2	1	5	112	0.00	29.549 
02:10	28.2	28.2	28.2	92	26.2	2	9	112	0.00	29.549 
02:15	28.2	28.2	28.2	93	26.4	1	5	45	0.00	29.546 
02:20	28.2	28.2	28.2	93	26.4	1	6	68	0.00	29.546 
02:25	28.2	28.2	28.2	93	26.4	2	7	90	0.00	29.546 
02:30	28.2	28.2	28.2	93	26.4	1	3	0	0.00	29.545 
02:35	28.2	28.2	28.2	93	26.4	1	3	45	0.00	29.545 
02:40	28.2	28.2	28.2	93	26.4	2	6	90	0.00	29.545 
02:45	28.2	28.2	28.2	93	26.4	2	7	112	0.00	29.539 
02:50	28.2	28.2	28.2	93	26.4	1	5	0	0.00	29.539 
02:55	28.2	28.2	28.2	93	26.4	2	9	112	0.00	29.539 
03:00	28.2	28.2	28.2	93	26.4	2	6	112	0.00	29.538 
03:05	28.2	28.2	28.2	93	26.4	1	4	45	0.00	29.538 
03:10	28.2	28.2	28.2	93	26.4	1	4	22	0.00	29.538 
03:15	28.2	28.2	28.2	93	26.4	1	5	338	0.00	29.536 
03:20	28.2	28.2	28.2	93	26.4	1	3	22	0.00	29.536 
03:25	28.2	28.2	28.2	93	26.4	1	4	338	0.00	29.536 
03:30	28.2	28.2	28.2	93	26.4	1	3	68	0.00	29.533 
03:35	28.2	28.2	28.2	93	26.4	1	3	68	0.00	29.533 
03:40	28.2	28.2	28.2	93	26.4	1	4	0	0.00	29.533 
03:45	28.2	28.2	28.2	93	26.4	0	2	22	0.00	29.528 
03:50	28.2	28.2	28.2	93	26.4	1	3	338	0.00	29.528 
03:55	28.2	28.2	28.2	93	26.4	1	5	338	0.00	29.528 
04:00	28.2	28.2	28.2	93	26.4	0	2	22	0.00	29.526 
04:05	28.2	28.2	28.2	93	26.4	1	3	0	0.00	29.526 
04:10	28.2	28.2	28.2	93	26.4	1	3	338	0.00	29.526 
04:15	28.2	28.2	28.2	93	26.4	0	3	338	0.00	29.523 
04:20	28.2	28.2	28.2	93	26.4	1	4	315	0.00	29.523 
04:25	28.2	28.2	28.2	93	26.4	1	4	0	0.00	29.523 
04:30	28.2	28.2	28.2	93	26.4	0	3	0	0.00	29.521 
04:35	28.2	28.2	28.2	93	26.4	1	5	338	0.00	29.521 
04:40	28.2	28.2	28.2	93	26.4	0	2	0	0.00	29.521 
04:45	28.2	28.2	28.2	93	26.4	1	3	338	0.00	29.521 
04:50	28.2	28.2	28.2	93	26.4	1	4	338	0.00	29.521 
04:55	28.2	28.2	28.2	93	26.4	0	3	338	0.00	29.521 
05:00	28.2	28.2	28.2	93	26.4	1	5	338	0.00	29.520 
05:05	28.2	28.2	28.2	93	26.4	1	4	0	0.00	29.520 
05:10	28.2	28.2	28.2	93	26.4	1	5	338	0.00	29.520 
05:15	28.2	28.2	28.2	93	26.4	1	3	338	0.00	29.520 
05:20	28.2	28.2	28.2	92	26.2	1	3	338	0.00	29.520 
05:25	28.2	28.2	28.2	92	26.2	1	3	338	0.00	29.520 
05:30	28.2	28.2	28.2	92	26.2	1	3	338	0.00	29.520 
05:35	28.2	28.2	28.2	92	26.2	1	3	315	0.00	29.520 
05:40	28.2	28.2	28.2	92	26.2	1	3	338	0.00	29.520 
05:45	28.2	28.2	28.2	92	26.2	1	3	338	0.00	29.521 
05:50	28.2	28.2	28.2	92	26.2	1	3	338	0.00	29.521 
05:55	28.2	28.2	28.2	92	26.2	1	3	0	0.00	29.521 
06:00	28.2	28.2	28.2	92	26.2	1	3	315	0.00	29.523 
06:05	28.2	28.2	28.2	92	26.2	1	3	22	0.00	29.523 
06:10	28.2	28.2	28.2	92	26.2	1	5	315	0.00	29.523 
06:15	28.2	28.2	28.2	92	26.2	1	4	338	0.00	29.525 
06:20	28.2	28.2	28.2	92	26.2	1	3	315	0.00	29.525 
06:25	28.2	28.2	28.2	92	26.2	0	3	338	0.00	29.525 
06:30	28.2	28.2	28.2	92	26.2	1	3	338	0.00	29.532 
06:35	28.2	28.2	28.2	92	26.2	1	3	0	0.00	29.532 
06:40	28.2	28.2	28.2	92	26.2	1	3	338	0.00	29.532 
06:45	28.2	28.2	28.2	92	26.2	1	3	315	0.00	29.538 
06:50	28.2	28.2	28.2	92	26.2	0	2	315	0.00	29.538 
06:55	28.2	28.2	28.2	92	26.2	0	2	338	0.00	29.538 
07:00	28.2	28.2	28.2	92	26.2	1	3	338	0.00	29.542 
07:05	28.2	28.2	28.2	92	26.2	1	3	338	0.00	29.542 
07:10	28.2	28.2	28.2	92	26.2	1	2	315	0.00	29.542 
07:15	28.4	28.4	28.4	92	26.4	1	3	338	0.00	29.551 
07:20	28.4	28.4	28.4	92	26.4	1	3	338	0.00	29.551 
07:25	28.4	28.4	28.4	92	26.4	1	3	338	0.00	29.551 
07:30	28.4	28.4	28.4	92	26.4	1	4	338	0.00	29.555 
07:35	28.4	28.4	28.4	92	26.4	0	2	338	0.00	29.555 
07:40	28.4	28.4	28.4	92	26.4	1	4	338	0.00	29.555 
07:45	28.4	28.4	28.4	92	26.4	0	3	338	0.00	29.564 
07:50	28.4	28.4	28.4	92	26.4	0	2	338	0.00	29.564 
07:55	28.4	28.4	28.4	92	26.4	1	4	315	0.00	29.564 
08:00	28.4	28.4	28.4	92	26.4	0	2	338	0.00	29.569 
08:05	28.4	28.4	28.4	92	26.4	1	3	338	0.00	29.569 
08:10	28.4	28.4	28.4	92	26.4	1	3	338	0.00	29.569 
08:15	28.4	28.4	28.4	92	26.4	1	2	338	0.00	29.570 
08:20	28.5	28.5	28.5	92	26.5	1	3	338	0.00	29.570 
08:25	28.5	28.5	28.5	92	26.5	1	3	338	0.00	29.570 
08:30	28.5	28.5	28.5	92	26.5	1	3	315	0.00	29.575 
08:35	28.5	28.5	28.5	92	26.5	1	2	0	0.00	29.575 
08:40	28.5	28.5	28.5	92	26.5	1	3	0	0.00	29.575 
08:45	28.7	28.7	28.7	92	26.7	1	4	338	0.00	29.582 
08:50	28.7	28.7	28.7	92	26.7	1	4	338	0.00	29.582 
08:55	28.8	28.8	28.8	93	27.0	0	2	338	0.00	29.582 
09:00	28.8	28.8	28.8	93	27.0	1	4	338	0.00	29.587 
09:05	28.8	28.8	28.8	93	27.0	1	3	338	0.00	29.587 
09:10	29.0	29.0	29.0	93	27.2	1	4	338	0.00	29.587 
09:15	29.0	29.0	29.0	93	27.2	1	3	338	0.00	29.600 
09:20	29.1	29.1	29.1	93	27.3	1	4	315	0.00	29.600 
09:25	29.1	29.1	29.1	93	27.3	1	3	338	0.00	29.600 
09:30	29.3	29.3	29.3	93	27.5	0	2	338	0.00	29.601 
09:35	29.4	29.4	29.4	93	27.6	1	4	315	0.00	29.601 
09:40	29.4	29.4	29.4	93	27.6	1	3	315	0.00	29.601 
09:45	29.4	29.4	29.4	93	27.6	1	6	338	0.00	29.603 
09:50	29.5	29.5	29.5	92	27.5	2	5	338	0.00	29.603 
09:55	29.5	29.5	29.5	92	27.5	1	4	338	0.00	29.603 
10:00	29.7	29.7	29.7	92	27.7	2	4	338	0.00	29.606 
10:05	29.8	29.8	29.8	92	27.8	1	3	315	0.00	29.606 
10:10	29.8	29.8	29.8	92	27.8	2	6	338	0.00	29.606 
10:15	30.0	30.0	30.0	92	28.0	1	3	0	0.00	29.618 
10:20	30.0	30.0	30.0	92	28.0	1	3	0	0.00	29.618 
10:25	30.1	30.1	30.1	92	28.1	0	2	315	0.00	29.618 
10:30	30.1	30.1	30.1	92	28.1	1	4	315	0.00	29.623 
10:35	30.3	30.3	30.3	92	28.3	1	3	0	0.00	29.623 
10:40	30.4	30.4	30.4	92	28.4	1	4	338	0.00	29.623 
10:45	30.4	30.4	30.4	92	28.4	1	5	338	0.00	29.631 
10:50	30.6	30.6	30.6	92	28.6	1	6	338	0.00	29.631 
10:55	30.6	30.6	30.6	92	28.6	2	4	338	0.00	29.631 
11:00	30.7	30.7	30.7	92	28.7	1	3	315	0.00	29.632 
11:05	30.9	30.9	30.9	92	28.9	1	4	0	0.00	29.632 
11:10	31.0	31.0	31.0	92	29.0	1	4	0	0.00	29.632 
11:15	31.2	31.2	31.2	92	29.2	2	5	0	0.00	29.638 
11:20	31.2	31.2	31.2	92	29.2	2	4	338	0.00	29.638 
11:25	31.5	31.5	31.5	92	29.4	1	3	338	0.00	29.638 
11:30	31.5	31.5	31.5	92	29.4	2	4	0	0.00	29.645 
11:35	31.5	31.5	31.5	92	29.4	2	4	0	0.00	29.645 
11:40	31.6	31.6	31.6	92	29.5	2	6	0	0.00	29.645 
11:45	31.6	31.6	31.6	91	29.3	2	6	338	0.00	29.649 
11:50	31.6	31.6	31.6	91	29.3	2	5	338	0.00	29.649 
11:55	31.8	31.8	31.8	91	29.5	2	6	0	0.00	29.649 
12:00	31.8	31.8	31.8	91	29.5	2	4	0	0.00	29.660 
12:05	31.8	31.8	31.8	90	29.2	2	5	338	0.00	29.660 
12:10	31.9	31.9	31.9	90	29.3	2	3	338	0.00	29.660 
12:15	31.9	31.9	31.9	90	29.3	2	5	338	0.00	29.665 
12:20	31.9	31.9	31.9	90	29.3	2	5	0	0.00	29.665 
12:25	31.9	31.9	31.9	89	29.0	2	9	0	0.00	29.665 
12:30	31.9	31.9	31.9	89	29.0	2	5	0	0.00	29.676 
12:35	32.1	32.1	32.1	89	29.2	1	4	315	0.00	29.676 
12:40	32.2	32.2	32.2	89	29.3	1	3	338	0.00	29.676 
12:45	32.4	32.4	32.4	89	29.5	1	3	338	0.00	29.680 
12:50	32.5	32.5	32.5	89	29.6	1	4	338	0.00	29.680 
12:55	32.5	32.5	32.5	89	29.6	1	3	338	0.00	29.680 
13:00	32.7	32.7	32.7	89	29.8	1	3	338	0.00	29.687 
13:05	32.7	32.7	32.7	89	29.8	1	6	338	0.01	29.687 
13:10	32.5	32.5	32.5	89	29.6	2	5	338	0.00	29.687 
13:15	32.7	32.7	32.7	89	29.8	1	4	0	0.01	29.692 
13:20	32.7	32.7	32.7	88	29.5	2	6	0	0.01	29.692 
13:25	32.8	32.8	32.8	88	29.6	1	3	0	0.00	29.692 
13:30	32.9	32.9	32.9	88	29.7	1	4	338	0.01	29.697 
13:35	33.1	33.1	33.1	88	29.9	2	4	338	0.00	29.697 
13:40	33.1	33.1	33.1	88	29.9	1	4	315	0.01	29.697 
13:45	33.4	33.4	33.4	87	30.0	1	5	338	0.00	29.700 
13:50	33.5	33.5	33.5	87	30.1	2	4	338	0.01	29.700 
13:55	33.5	33.5	33.5	86	29.8	2	4	315	0.00	29.700 
14:00	33.5	33.5	33.5	85	29.5	3	7	338	0.01	29.707 
14:05	33.7	33.7	33.7	85	29.7	2	5	338	0.00	29.707 
14:10	33.8	33.8	33.8	85	29.8	2	5	338	0.00	29.707 
14:15	34.0	34.0	34.0	85	30.0	2	7	338	0.01	29.709 
14:20	34.1	34.1	34.1	84	29.8	2	7	338	0.01	29.709 
14:25	34.1	34.1	34.1	84	29.8	2	7	338	0.01	29.709 
14:30	34.3	34.3	34.3	83	29.7	3	6	338	0.00	29.711 
14:35	34.1	30.5	34.1	81	28.9	4	11	338	0.01	29.711 
14:40	34.1	34.1	34.1	82	29.2	3	7	315	0.01	29.711 
14:45	34.3	34.3	34.3	83	29.7	2	6	338	0.00	29.717 
14:50	34.3	34.3	34.3	83	29.7	2	5	292	0.01	29.717 
14:55	34.1	34.1	34.1	82	29.2	3	9	338	0.01	29.717 
15:00	34.1	34.1	34.1	83	29.5	2	5	338	0.01	29.725 
15:05	34.0	34.0	34.0	84	29.7	2	5	338	0.00	29.725 
15:10	34.0	34.0	34.0	85	30.0	1	4	22	0.01	29.725 
15:15	34.1	34.1	34.1	85	30.1	2	4	22	0.00	29.729 
15:20	34.1	34.1	34.1	86	30.4	2	4	315	0.01	29.729 
15:25	34.3	34.3	34.3	86	30.6	2	4	338	0.01	29.729 
15:30	34.4	34.4	34.4	86	30.7	2	5	338	0.00	29.736 
15:35	34.7	34.7	34.7	86	30.9	1	3	315	0.01	29.736 
15:40	35.0	35.0	35.0	85	31.0	1	3	315	0.00	29.736 
15:45	34.9	34.9	34.9	83	30.3	2	6	338	0.01	29.740 
15:50	35.0	35.0	35.0	82	30.1	2	4	338	0.00	29.740 
15:55	35.5	35.5	35.5	82	30.6	1	4	270	0.01	29.740 
16:00	35.8	35.8	35.8	79	29.9	2	5	315	0.00	29.741 
16:05	35.8	35.8	35.8	77	29.3	2	7	338	0.01	29.741 
16:10	35.8	35.8	35.8	75	28.7	3	9	338	0.00	29.741 
16:15	35.9	35.9	35.9	73	28.1	2	9	338	0.01	29.747 
16:20	35.9	35.9	35.9	72	27.8	2	6	338	0.00	29.747 
16:25	36.0	36.0	36.0	72	27.9	2	6	338	0.01	29.747 
16:30	35.9	35.9	35.9	72	27.8	2	7	338	0.00	29.754 
16:35	35.8	35.8	35.8	72	27.7	3	6	292	0.00	29.754 
16:40	35.9	35.9	35.9	71	27.4	3	10	292	0.00	29.754 
16:45	35.9	35.9	35.9	70	27.1	3	11	338	0.01	29.759 
16:50	35.9	35.9	35.9	69	26.7	2	5	0	0.00	29.759 
16:55	36.0	36.0	36.0	69	26.8	2	7	338	0.00	29.759 
17:00	36.2	36.2	36.2	68	26.7	2	7	315	0.00	29.767 
17:05	36.2	36.2	36.2	69	27.0	3	9	338	0.00	29.767 
17:10	35.9	35.9	35.9	69	26.7	3	9	338	0.01	29.767 
17:15	35.9	35.9	35.9	70	27.1	2	5	292	0.00	29.774 
17:20	36.0	36.0	36.0	70	27.2	2	6	338	0.00	29.774 
17:25	35.9	35.9	35.9	70	27.1	3	6	338	0.00	29.774 
17:30	35.8	35.8	35.8	70	27.0	2	6	315	0.00	29.785 
17:35	35.9	35.9	35.9	71	27.4	1	4	338	0.00	29.785 
17:40	35.8	35.8	35.8	72	27.7	2	4	338	0.00	29.785 
17:45	35.6	35.6	35.6	71	27.1	3	6	0	0.00	29.794 
17:50	35.6	35.6	35.6	72	27.5	2	5	315	0.01	29.794 
17:55	35.5	35.5	35.5	71	27.0	2	7	0	0.00	29.794 
18:00	35.6	35.6	35.6	71	27.1	1	6	338	0.00	29.802 
18:05	35.8	35.8	35.8	72	27.7	1	3	338	0.00	29.802 
18:10	35.8	35.8	35.8	72	27.7	2	6	0	0.00	29.802 
18:15	35.8	35.8	35.8	73	28.0	1	5	338	0.00	29.809 
18:20	35.6	35.6	35.6	73	27.8	1	6	338	0.00	29.809 
18:25	35.6	35.6	35.6	73	27.8	1	5	338	0.00	29.809 
18:30	35.8	35.8	35.8	73	28.0	2	6	315	0.00	29.816 
18:35	35.8	35.8	35.8	72	27.7	2	4	338	0.00	29.816 
18:40	35.8	35.8	35.8	72	27.7	1	4	338	0.00	29.816 
18:45	35.8	35.8	35.8	72	27.7	2	5	0	0.00	29.825 
18:50	35.6	35.6	35.6	72	27.5	2	5	338	0.00	29.825 
18:55	35.6	35.6	35.6	72	27.5	2	5	338	0.00	29.825 
19:00	35.6	35.6	35.6	71	27.1	2	5	338	0.00	29.834 
19:05	35.6	35.6	35.6	71	27.1	1	4	338	0.00	29.834 
19:10	35.6	35.6	35.6	71	27.1	2	10	338	0.00	29.834 
19:15	35.5	35.5	35.5	70	26.7	1	3	292	0.00	29.846 
19:20	35.5	35.5	35.5	69	26.4	2	5	292	0.00	29.846 
19:25	35.5	35.5	35.5	69	26.4	2	7	338	0.00	29.846 
19:30	35.3	35.3	35.3	69	26.2	2	11	292	0.00	29.854 
19:35	35.2	35.2	35.2	70	26.4	1	6	0	0.00	29.854 
19:40	35.0	35.0	35.0	71	26.6	2	6	338	0.00	29.854 
19:45	35.0	35.0	35.0	71	26.6	1	4	0	0.00	29.865 
19:50	34.9	34.9	34.9	72	26.8	1	3	338	0.00	29.865 
19:55	34.9	34.9	34.9	72	26.8	1	3	338	0.00	29.865 
20:00	34.9	34.9	34.9	72	26.8	0	3	338	0.00	29.870 
20:05	34.7	34.7	34.7	72	26.6	0	2	338	0.00	29.870 
20:10	34.9	34.9	34.9	72	26.8	0	2	338	0.00	29.870 
20:15	34.9	34.9	34.9	72	26.8	1	3	338	0.00	29.880 
20:20	34.9	34.9	34.9	71	26.5	1	3	270	0.00	29.880 
20:25	35.0	35.0	35.0	71	26.6	1	4	270	0.00	29.880 
20:30	35.0	35.0	35.0	71	26.6	1	3	315	0.00	29.888 
20:35	35.0	35.0	35.0	70	26.2	2	4	338	0.00	29.888 
20:40	35.0	35.0	35.0	70	26.2	2	4	338	0.00	29.888 
20:45	35.0	35.0	35.0	71	26.6	1	4	315	0.00	29.897 
20:50	34.9	34.9	34.9	71	26.5	1	4	338	0.00	29.897 
20:55	34.7	34.7	34.7	72	26.6	1	3	338	0.00	29.897 
21:00	34.7	34.7	34.7	72	26.6	1	5	315	0.00	29.904 
21:05	34.6	34.6	34.6	73	26.9	1	4	338	0.00	29.904 
21:10	34.6	34.6	34.6	73	26.9	2	5	292	0.00	29.904 
21:15	34.4	34.4	34.4	74	27.0	1	4	338	0.00	29.912 
21:20	34.4	34.4	34.4	74	27.0	1	3	292	0.00	29.912 
21:25	34.4	34.4	34.4	75	27.3	0	2	292	0.00	29.912 
21:30	34.3	34.3	34.3	76	27.5	1	3	270	0.00	29.920 
21:35	34.3	34.3	34.3	76	27.5	1	2	292	0.00	29.920 
21:40	34.1	34.1	34.1	77	27.7	1	3	270	0.00	29.920 
21:45	34.1	34.1	34.1	78	28.0	0	2	270	0.00	29.926 
21:50	34.1	34.1	34.1	79	28.3	1	3	270	0.00	29.926 
21:55	34.0	34.0	34.0	79	28.2	1	3	292	0.00	29.926 
22:00	34.0	34.0	34.0	80	28.5	1	2	248	0.00	29.929 
22:05	34.0	34.0	34.0	80	28.5	1	2	315	0.00	29.929 
22:10	34.0	34.0	34.0	80	28.5	0	2	315	0.00	29.929 
22:15	34.0	34.0	34.0	80	28.5	1	4	338	0.00	29.934 
22:20	34.0	34.0	34.0	80	28.5	0	2	315	0.00	29.934 
22:25	34.0	34.0	34.0	80	28.5	1	4	270	0.00	29.934 
22:30	34.0	34.0	34.0	79	28.2	1	3	270	0.00	29.937 
22:35	34.0	34.0	34.0	79	28.2	1	4	270	0.00	29.937 
22:40	33.8	33.8	33.8	79	28.0	1	3	270	0.00	29.937 
22:45	33.8	33.8	33.8	79	28.0	1	4	315	0.00	29.943 
22:50	33.8	33.8	33.8	79	28.0	1	3	338	0.00	29.943 
22:55	33.7	33.7	33.7	79	27.9	0	2	270	0.00	29.943 
23:00	33.5	33.5	33.5	79	27.7	1	3	315	0.00	29.945 
23:05	33.5	33.5	33.5	79	27.7	1	3	315	0.00	29.945 
23:10	33.5	33.5	33.5	80	28.0	1	3	315	0.00	29.945 
23:15	33.4	33.4	33.4	80	27.9	0	2	292	0.00	29.945 
23:20	33.2	33.2	33.2	80	27.7	1	2	292	0.00	29.945 
23:25	33.2	33.2	33.2	80	27.7	1	3	292	0.00	29.945 
23:30	33.2	33.2	33.2	80	27.7	1	3	248	0.00	29.950 
23:35	33.1	33.1	33.1	80	27.6	1	3	315	0.00	29.950 
23:40	33.1	33.1	33.1	80	27.6	1	3	315	0.00	29.950 
23:45	33.1	33.1	33.1	80	27.6	1	3	315	0.00	29.953 
23:50	32.9	32.9	32.9	80	27.4	1	2	292	0.00	29.953 
23:55	32.8	32.8	32.8	81	27.6	1	3	292	0.00	29.953 

CoCoRaHS
IN-AL-39
A2 Web Hosting
Creative Commons License
GoDaddy
search engine by freefind advanced

loaded 2018-11-12 19:19:47 • last modified 2010-11-18 10:43:29
Privacy PolicyDisclaimer
• wx.awcolley.com is powered by PmWiki v.2002016 •
• all content (unless otherwise noted) © 2018 A W Colley